Погода в Андреевском

Россия / Владимирская область     56°24′08″N   39°00′16″E
темп.,
°C
ветер,
м/с
пор.,
м/с
влажн.,
%
обл.,
%
осадки,
мм/ч
давл.,
гПа
погр.,
м
5 августа, чт
чт500:00+14зсз2268100 0.0 101719
03:00+14з116842 0.0 101711
06:00+13ссв117791 0.0 101814
09:00+18ю226116 0.0 1017374
12:00+22ю1248100 0.0 10171357
15:00+23ююв2441100 0.0 10162335
18:00+21ю3660100 0.1 1015418
21:00+14в2394100 1.8 101582
6 августа, пт
пт600:00+14вюв3109599 0.5 1014263
03:00+13вюв369544 0.8 1013140
06:00+14ююв2394100 0.2 1012101
09:00+17ююв3583100 0.3 1012328
12:00+20ю4676100 0.5 1012595
15:00+21ююз3576100 1.6 1012722
18:00+17ююв2399100 5.4 101288
21:00+17юв2599100 6.0 1012188
7 августа, сб
сб700:00+16в3897100 0.8 1011189
03:00+15в61295100 0.8 1011332
06:00+15вюв4997100 1.8 1011296
09:00+19вюв578698 2.9 1010411
12:00+24ююв686826 0.8 1010851
15:00+22ю487396 0.8 1010427
18:00+24ююв6116786 0.3 1009575
21:00+19юв31082100 0.6 1010217
8 августа, вс
вс800:00+17ююв348456 0.1 101061
03:00+16ю379215 0.1 1011112
06:00+17зюз2596100 0.2 1011138
09:00+19зюз348489 0.8 1013477
12:00+19ююз2377100 0.0 1014113
15:00+23юз3551100 0.0 10141161
18:00+22юз246398 0.0 1015247
21:00+17зсз348795 0.1 101765
9 августа, пн
пн900:00+15з22890 0.0 101714
03:00+14зюз22910 0.0 101814
06:00+14зюз23907 0.0 101864
09:00+20зюз236717 0.0 1018518
12:00+24зюз235248 0.0 10181365
15:00+26зсз23445 0.0 10181862
18:00+25сз12545 0.0 1017259
21:00+19ссв01625 0.0 101811